Mackinac Island, MI

5:55 PM EDT on April 26, 2017 (GMT -0400)
Mackinac Island

Weather History for KMCD - September, 2013

Change the Weather History Date:

Wednesday, September 11, 2013

  Actual Average Record
Temperature  
Mean Temperature 68 °F -  
Max Temperature 71 °F 67 °F 80 °F (1982)
Min Temperature 64 °F 54 °F 42 °F (2007)
Cooling Degree Days 2    
Growing Degree Days 18 (Base 50)    
Moisture  
Dew Point 65 °F    
Average Humidity 94    
Maximum Humidity 98    
Minimum Humidity 83    
Precipitation  
Precipitation 0.46 in - - ()
Sea Level Pressure  
Sea Level Pressure 29.92 in    
Wind  
Wind Speed 8 mph (SW)    
Max Wind Speed 15 mph    
Max Gust Speed 23 mph    
Visibility 10 miles    
Events Rain    
Averages and records for this station are not official NWS values.
T = Trace of Precipitation, MM = Missing Value Source: NWS Daily Summary

Daily Weather History Graph

Daily Weather History Graph

Search for Another Location

Airport or City:

Trip Planner

Search our weather history database for the weather conditions in past years. The results will help you decide how hot, cold, wet, or windy it might be!

Date:

Astronomy

Sep. 11, 2013 Rise Set
Actual Time 7:12 AM EDT 7:57 PM EDT
Civil Twilight 6:41 AM EDT 8:27 PM EDT
Nautical Twilight 6:06 AM EDT 9:02 PM EDT
Astronomical Twilight 5:28 AM EDT 9:40 PM EDT
Moon 1:59 PM EDT (9/11) 11:31 PM EDT (9/11)
Length of Visible Light 13h 45m
Length of Day
12h 44m
Waxing Crescent, 38% of the Moon is Illuminated
Sep 11
Waxing Crescent
Sep 12
First Quarter
Sep 19
Full
Sep 26
Last Quarter
Oct 4
New

Hourly Weather History & Observations

Time (EDT) Temp. Dew Point Humidity Pressure Visibility Wind Dir Wind Speed Gust Speed Precip Events Conditions
12:16 AM 65.5 °F 64.8 °F 98% 29.93 in 10.0 mi SW 6.9 mph - 0.02 in Rain Light Rain
12:35 AM 65.5 °F 64.9 °F 98% 29.93 in 10.0 mi SW 6.9 mph - 0.03 in Rain Rain
12:56 AM 65.3 °F 64.6 °F 98% 29.94 in 10.0 mi SSW 6.9 mph - 0.04 in Rain Rain
1:16 AM 65.3 °F 64.6 °F 98% 29.94 in 7.0 mi SW 8.1 mph - 0.05 in Rain Rain
1:35 AM 65.3 °F 64.6 °F 98% 29.93 in 10.0 mi SW 8.1 mph - 0.06 in   Overcast
1:56 AM 65.1 °F 64.4 °F 98% 29.92 in 10.0 mi SSW 5.8 mph - 0.06 in   Mostly Cloudy
2:15 AM 65.3 °F 64.4 °F 97% 29.92 in 10.0 mi SW 8.1 mph - N/A   Mostly Cloudy
2:36 AM 64.9 °F 64.4 °F 98% 29.93 in 10.0 mi SSW 9.2 mph - N/A   Scattered Clouds
2:56 AM 64.9 °F 64.4 °F 98% 29.93 in 10.0 mi SSW 10.4 mph - N/A   Clear
3:15 AM 64.9 °F 64.4 °F 98% 29.93 in 10.0 mi SSW 9.2 mph - N/A   Clear
3:36 AM 64.9 °F 64.4 °F 98% 29.93 in 10.0 mi SSW 8.1 mph - N/A   Clear
3:56 AM 64.9 °F 64.4 °F 98% 29.93 in 10.0 mi SW 5.8 mph - N/A   Clear
4:15 AM 65.1 °F 64.4 °F 98% 29.93 in 10.0 mi SW 6.9 mph - N/A   Clear
4:36 AM 64.9 °F 64.4 °F 98% 29.92 in 10.0 mi SW 8.1 mph - N/A   Clear
4:56 AM 64.9 °F 64.4 °F 98% 29.92 in 10.0 mi SW 8.1 mph - N/A   Clear
5:15 AM 64.9 °F 64.4 °F 98% 29.92 in 10.0 mi SW 9.2 mph - N/A   Clear
5:36 AM 64.9 °F 64.4 °F 98% 29.93 in 10.0 mi SW 6.9 mph - N/A   Clear
5:56 AM 65.1 °F 64.2 °F 97% 29.91 in 10.0 mi SW 8.1 mph - N/A   Clear
6:15 AM 64.9 °F 64.0 °F 97% 29.92 in 10.0 mi WSW 9.2 mph - N/A   Clear
6:36 AM 65.1 °F 64.4 °F 98% 29.92 in 10.0 mi West 6.9 mph - N/A   Clear
6:56 AM 64.9 °F 64.4 °F 98% 29.92 in 10.0 mi SW 6.9 mph - N/A   Clear
7:16 AM 65.3 °F 64.6 °F 98% 29.93 in 10.0 mi SW 10.4 mph - N/A   Clear
7:36 AM 65.3 °F 64.4 °F 97% 29.93 in 10.0 mi SW 9.2 mph - N/A   Clear
7:56 AM 65.3 °F 64.0 °F 96% 29.93 in 10.0 mi SW 8.1 mph - N/A   Clear
8:16 AM 65.3 °F 64.0 °F 96% 29.93 in 10.0 mi SW 9.2 mph - N/A   Clear
8:36 AM 65.5 °F 64.2 °F 96% 29.94 in 10.0 mi SW 10.4 mph 16.1 mph N/A   Clear
8:56 AM 66.9 °F 65.1 °F 94% 29.94 in 10.0 mi SW 9.2 mph - N/A   Scattered Clouds
9:16 AM 67.1 °F 64.9 °F 93% 29.95 in 10.0 mi SW 9.2 mph 16.1 mph N/A   Mostly Cloudy
9:36 AM 66.9 °F 64.8 °F 93% 29.96 in 10.0 mi SW 9.2 mph - N/A   Overcast
9:56 AM 66.6 °F 65.3 °F 96% 29.96 in 10.0 mi WSW 12.7 mph 17.3 mph N/A   Overcast
10:16 AM 66.9 °F 65.3 °F 95% 29.95 in 10.0 mi WSW 6.9 mph - N/A   Overcast
10:36 AM 66.7 °F 65.3 °F 95% 29.95 in 10.0 mi SW 10.4 mph 18.4 mph N/A   Overcast
10:55 AM 67.5 °F 65.7 °F 94% 29.95 in 10.0 mi SW 10.4 mph 17.3 mph N/A   Overcast
11:16 AM 67.5 °F 65.8 °F 95% 29.94 in 10.0 mi SW 10.4 mph 16.1 mph N/A   Overcast
11:36 AM 67.5 °F 66.2 °F 96% 29.94 in 10.0 mi WSW 8.1 mph - N/A   Overcast
11:55 AM 67.5 °F 66.2 °F 96% 29.94 in 10.0 mi WSW 10.4 mph 16.1 mph N/A   Overcast
12:16 PM 68.0 °F 66.0 °F 93% 29.94 in 10.0 mi West 10.4 mph 16.1 mph N/A   Overcast
12:36 PM 68.0 °F 65.8 °F 93% 29.94 in 10.0 mi WSW 9.2 mph - N/A   Overcast
12:55 PM 68.2 °F 66.0 °F 93% 29.94 in 10.0 mi WSW 6.9 mph - N/A   Overcast
1:16 PM 67.5 °F 65.5 °F 93% 29.93 in 10.0 mi WSW 5.8 mph - N/A   Overcast
1:35 PM 67.3 °F 65.3 °F 93% 29.94 in 10.0 mi West 5.8 mph - N/A   Overcast
1:56 PM 68.9 °F 65.8 °F 90% 29.93 in 10.0 mi WSW 5.8 mph - N/A   Overcast
2:16 PM 69.8 °F 66.0 °F 88% 29.93 in 10.0 mi WSW 12.7 mph - N/A   Mostly Cloudy
2:35 PM 69.8 °F 66.6 °F 89% 29.93 in 10.0 mi WSW 8.1 mph - N/A   Scattered Clouds
2:56 PM 70.0 °F 66.2 °F 88% 29.93 in 10.0 mi WSW 6.9 mph - N/A   Clear
3:16 PM 70.7 °F 66.2 °F 86% 29.93 in 10.0 mi West 9.2 mph - N/A   Scattered Clouds
3:36 PM 71.6 °F 66.4 °F 84% 29.93 in 10.0 mi West 9.2 mph - N/A   Clear
3:56 PM 71.4 °F 66.0 °F 83% 29.93 in 10.0 mi West 8.1 mph - N/A   Clear
4:15 PM 70.7 °F 66.4 °F 86% 29.93 in 10.0 mi SW 10.4 mph 16.1 mph N/A   Clear
4:36 PM 70.7 °F 66.7 °F 87% 29.93 in 10.0 mi WSW 9.2 mph 16.1 mph N/A   Clear
4:56 PM 70.3 °F 66.2 °F 87% 29.93 in 10.0 mi WSW 9.2 mph - N/A   Clear
5:15 PM 70.3 °F 66.2 °F 87% 29.93 in 10.0 mi WSW 15.0 mph 19.6 mph N/A   Clear
5:36 PM 70.2 °F 66.4 °F 88% 29.93 in 10.0 mi WSW 10.4 mph 21.9 mph N/A   Clear
5:56 PM 70.0 °F 66.2 °F 88% 29.93 in 10.0 mi WSW 10.4 mph 20.7 mph N/A   Clear
6:15 PM 69.3 °F 66.2 °F 90% 29.92 in 10.0 mi WSW 11.5 mph 19.6 mph N/A   Clear
6:36 PM 69.1 °F 65.8 °F 89% 29.92 in 10.0 mi WSW 11.5 mph 19.6 mph N/A   Clear
6:56 PM 68.4 °F 65.7 °F 91% 29.91 in 10.0 mi WSW 11.5 mph 16.1 mph N/A   Clear
7:15 PM 68.2 °F 65.8 °F 92% 29.91 in 10.0 mi WSW 12.7 mph 19.6 mph N/A   Clear
7:36 PM 68.0 °F 65.8 °F 93% 29.90 in 10.0 mi WSW 8.1 mph - N/A   Clear
7:56 PM 67.1 °F 65.7 °F 95% 29.90 in 7.0 mi WSW 8.1 mph - N/A   Scattered Clouds
8:16 PM 67.1 °F 65.3 °F 94% 29.89 in 10.0 mi WSW 4.6 mph - N/A   Scattered Clouds
8:36 PM 66.2 °F 64.6 °F 94% 29.90 in 10.0 mi SW 4.6 mph - N/A   Clear
8:56 PM 67.1 °F 64.4 °F 91% 29.89 in 10.0 mi SSW 5.8 mph - N/A   Mostly Cloudy
9:15 PM 67.6 °F 64.2 °F 89% 29.88 in 10.0 mi South 6.9 mph - N/A   Overcast
9:36 PM 68.0 °F 63.9 °F 87% 29.88 in 10.0 mi South 4.6 mph - N/A   Overcast
9:56 PM 66.4 °F 64.9 °F 95% 29.92 in 1.5 mi NW 11.5 mph 23.0 mph 0.30 in Rain Heavy Rain
10:16 PM 64.4 °F 63.0 °F 95% 29.90 in 7.0 mi SSW 3.5 mph - 0.05 in Rain Light Rain
10:36 PM 64.4 °F 63.5 °F 97% 29.90 in 10.0 mi WSW 3.5 mph - 0.06 in Rain Rain
10:55 PM 64.8 °F 63.9 °F 97% 29.89 in 10.0 mi WSW 6.9 mph - 0.06 in Rain Light Rain
11:16 PM 65.5 °F 64.6 °F 97% 29.89 in 10.0 mi WSW 4.6 mph - N/A   Overcast
11:36 PM 65.7 °F 64.8 °F 97% 29.88 in 10.0 mi West 4.6 mph - N/A   Overcast
11:55 PM 65.7 °F 64.9 °F 98% 29.89 in 10.0 mi WSW 5.8 mph - N/A   Overcast